Regional Weather Roundup
Issued by NWS

Home | Current Version | Previous Version | Text Only | Print | Product List | Glossary Off
Versions: 1 2 3 4 5 6 7 8 9 10 11 12 13 14 15 16 17 18 19 20 21 22 23 24 25 26 27 28 29 30 31 32 33 34 35 36 37 38 39 40 41 42 43 44 45 46 47 48 49 50

000
ASUS43 KLOT 221806
RWRIL

ILLINOIS REGIONAL WEATHER ROUNDUP
NATIONAL WEATHER SERVICE CHICAGO/ROMEOVILLE IL
100 PM CDT TUE JUL 22 2014

NOTE: "FAIR" INDICATES FEW OR NO CLOUDS BELOW 12,000 FEET WITH NO
SIGNIFICANT WEATHER AND/OR OBSTRUCTIONS TO VISIBILITY.

* THESE STATIONS ARE NOT UNDER NWS QUALITY CONTROL. THEY ALSO MAY NOT
  REPORT WEATHER SUCH AS PRECIPITATION OR FOG.

ILZ001-002-007-009-015-016-024-221900-
NORTHWEST ILLINOIS

CITY           SKY/WX    TMP DP  RH WIND       PRES   REMARKS
MOLINE         MOSUNNY   85  73  67 W10       29.95F HX  91
6HR MIN TEMP:  74; 6HR MAX TEMP:  86;

STERLING*      SUNNY     88  75  66 W8        29.97F HX  97
SAVANNA*       CLOUDY    89  73  59 SW10      29.94F HX  97
$$

ILZ003-004-008-010-011-017-018-221900-
NORTH CENTRAL ILLINOIS

CITY           SKY/WX    TMP DP  RH WIND       PRES   REMARKS
ROCKFORD       PTSUNNY   86  72  62 SW13      29.98S HX  92
6HR MIN TEMP:  71; 6HR MAX TEMP:  87;

FREEPORT*      MOSUNNY   82  75  78 SW12G17   29.98F HX  89
DE KALB*       PTSUNNY   82  72  70 S15       29.99F HX  87
PERU*          PTSUNNY   86  72  61 SW13      29.99F HX  92
$$

ILZ005-006-012>014-019>023-221900-
NORTHEAST ILLINOIS

CITY           SKY/WX    TMP DP  RH WIND       PRES   REMARKS
CHICAGO-OHARE  PTSUNNY   86  68  54 SW14G21   29.98F HX  89
6HR MIN TEMP:  73; 6HR MAX TEMP:  87;

CHICAGO-MIDWAY PTSUNNY   87  70  56 SW15G23   29.99F HX  92
6HR MIN TEMP:  73; 6HR MAX TEMP:  88;

AURORA         PTSUNNY   85  71  63 SW14      29.99F HX  90
6HR MIN TEMP:  68; 6HR MAX TEMP:  86;

LANSING*       MOSUNNY   85  68  55 SW15      30.01F HX  88
WAUKEGAN       MOSUNNY   88  70  55 SW16G26   29.94F HX  93
6HR MIN TEMP:  72; 6HR MAX TEMP:  88;

DUPAGE AIRPORT PTSUNNY   88  71  57 SW20G25   29.98F HX  94
6HR MIN TEMP:  70; 6HR MAX TEMP:  88;

KANKAKEE*      SUNNY     86  73  65 SW13      30.04S HX  92
WHEELING       PTSUNNY   88  70  55 S15       29.97F HX  93
6HR MIN TEMP:  74; 6HR MAX TEMP:  88;

MORRIS*        PTSUNNY   86  73  65 S8        30.00F HX  92
ROMEOVILLE*    PTSUNNY   84  69  62 SW13      30.00F HX  87
NORTHERLY ISL    N/A     84  66  54 S13         N/A  HX  86
$$

LMZ740>746-221900-
SOUTHERN LAKE MICHIGAN

STATION/POSITION SKY/WX   TEMP    WIND        PRES    VSBY  WAVE
                          AIR SEA DIR/SP/G                  HT/PER
                          (F)     (DEG/KT/KT) (MB)    (MI)  (FT/S)
SOUTHERN BUOY              71 68  180/ 14/ 17 1015.0F         2/ 4
WAUKEGAN HARBOR            80     210/ 16/ 19 1015.2F
HARRISON CRIB              81     210/ 20/ 26   N/A
BURNHAM HARBOR             85     180/  9/ 18   N/A
CALUMET HARBOR             84     220/  9/ 14 1014.6F
BURNS HARBOR               80     210/ 12/ 19 1017.3S
MICHIGAN CITY              79     200/ 14/ 19   N/A
$$

ILZ025>027-034>036-040-047-049-050-058-095>099-221900-
WEST-CENTRAL ILLINOIS

CITY           SKY/WX    TMP DP  RH WIND       PRES   REMARKS
QUINCY         LGT RAIN  77  72  84 SW13G20   29.99F
GALESBURG*     PTSUNNY   84  75  74 CALM      29.99F HX  93
MACOMB*        CLOUDY    74  72  92 E8        30.03R
JACKSONVILLE*  CLOUDY    82  73  75 S12       30.01F HX  87
$$

ILZ028>032-037-038-041>044-048-051>054-059>061-221900-
CENTRAL ILLINOIS

CITY           SKY/WX    TMP DP  RH WIND       PRES   REMARKS
PONTIAC        MOSUNNY   84  72  65 SW10      30.02S HX  89
BLOOMINGTON    PTSUNNY   83  72  69 SW10      30.05F HX  88
DECATUR          N/A     85  70  60 SW12      30.05F HX  89
PEORIA         PTSUNNY   88  72  58 S13       30.00S HX  94
6HR MIN TEMP:  71; 6HR MAX TEMP:  90;

LACON*         MOSUNNY   85  72  65 SW8       29.99F HX  90
LINCOLN*       CLOUDY    86  70  59 S9        30.00R HX  91
SPRINGFIELD    CLOUDY    85  71  63 S10       30.03S HX  90
6HR MIN TEMP:  73; 6HR MAX TEMP:  85;

TAYLORVILLE    PTSUNNY   81  70  69 SW10      30.05F HX  84
$$

ILZ033-039-045-046-055>057-062-063-221900-
EAST-CENTRAL ILLINOIS

CITY           SKY/WX    TMP DP  RH WIND       PRES   REMARKS
CHAMPAIGN      SUNNY     84  71  65 S9        30.06F HX  89
MATTOON        SUNNY     84  68  58 SW9       30.06F HX  87
PARIS*         SUNNY     83  70  63 SW8       30.08F HX  88
$$

ILZ079-100>102-221900-
SOUTHWEST ILLINOIS

CITY           SKY/WX    TMP DP  RH WIND       PRES   REMARKS
ALTON          CLOUDY    84  72  65 VRB6      30.06F HX  89
CAHOKIA*       PTSUNNY   88  69  53 SE9       30.06F HX  92
SPARTA*        SUNNY     82  68  61 CALM      30.10S HX  85
$$

ILZ064>066-069>071-074>076-080>082-084>086-088>090-092>094-221900-
SOUTH-CENTRAL ILLINOIS

CITY           SKY/WX    TMP DP  RH WIND       PRES   REMARKS
CARBONDALE     MOSUNNY   87  69  54 S9        30.09S HX  91
6HR MIN TEMP:  66; 6HR MAX TEMP:  87;

CAIRO*         SUNNY     88  70  54 SW6       30.09F HX  93
MARION         MOSUNNY   88  68  51 S7        30.10S HX  91
MT. VERNON     SUNNY     88  70  55 SW9       30.10S HX  92
CENTRALIA*     SUNNY     91  63  39 SW7       30.09S HX  92
SALEM*         SUNNY     88  68  50 SW9       30.08F HX  92
METROPOLIS*    SUNNY     89  60  37 SW3       30.08F HX  88
$$

ILZ067-068-072-073-078-083-087-091-221900-
SOUTHEAST ILLINOIS

CITY           SKY/WX    TMP DP  RH WIND       PRES   REMARKS
FLORA*         SUNNY     85  67  54 SW8       30.09S HX  87
FAIRFIELD*     SUNNY     88  73  62 S7        30.08F HX  96
HARRISBURG*    SUNNY     86  69  55 S5        30.09F HX  90
ROBINSON*      MOSUNNY   88  71  57 SW8       30.09S HX  94
CARMI*         SUNNY     88  72  58 SE5       30.08F HX  94
$$

ABBREVIATIONS USED IN REMARKS
   TC - TEMPERATURE IN CELSIUS
  WCI - WIND CHILL INDEX
   HX - HEAT INDEX
  VSB - VISIBILITY
$$



USA.gov is the U.S. government's official web portal to all federal, state and local government web resources and services.